Flag for U.S.A. Weather past 2 weeks in Winamac, Indiana, U.S.A.

Now
17 °F

Light snow. Ice fog.


Feels Like: 12 °F
Forecast: 18 / 28 °F
Wind: 3 mph from Southeast

Location: Porter County Municipal Airport

Current Time: Mar 1, 2015 at 2:32:33 AM

Latest Report: Mar 1, 2015 at 1:56 AM


Visibility: 5 mi

Pressure: 30.48 "Hg

Humidity: 88%

Dew point: 14 °F

Location of WinamacLocation

Historic Weather in Winamac — Graph

°F

Winamac temperature yesterday

Maximum temperature yesterday: 20 °F (at 7:56 PM)
Minimum temperature yesterday: -9 °F (at 3:56 AM)
Average temperature yesterday: 7 °F

Past Weeks' High & Low Weather Summary

 TemperatureHumidityPressure
High28 °F (Feb 21, 4:56 PM)92% (Feb 27, 4:56 AM)30.79 "Hg (Feb 27, 4:56 AM)
Low-12 °F (Feb 20, 6:56 AM)37% (Feb 15, 4:56 PM)29.76 "Hg (Feb 24, 2:56 PM)
Average11 °F68%30.25 "Hg
* Reported Feb 14 12:56 AM — Mar 1 12:56 AM, Winamac, Weather by CustomWeather, © 2015

Note: Actual official high and low records may vary slightly from our data, if they occured in-between our weather recording intervals... More about our weather records

Advertising

Winamac weather history for previous 24 hours

 ConditionsComfort  
Time TempWeatherWind HumidityBarometerVisibility
12:56 AM
Sun, Mar 1
17 °FLight snow. Ice fog.No wind88%30.50 "Hg2 mi
11:56 PM
Sat, Feb 28
17 °FLight snow. Ice fog.5 mph88%30.52 "Hg3 mi
10:56 PM17 °FLight snow. Ice fog.7 mph83%30.54 "Hg4 mi
9:56 PM18 °FPartly cloudy.7 mph80%30.58 "Hg6 mi
8:56 PM19 °FLight snow. Overcast.8 mph68%30.59 "Hg2 mi
7:56 PM20 °FOvercast.3 mph55%30.60 "Hg10 mi
6:56 PM19 °FOvercast.5 mph59%30.59 "Hg10 mi
5:56 PM19 °FPassing clouds.6 mph54%30.61 "Hg10 mi
4:56 PM19 °FSunny.5 mph54%30.63 "Hg10 mi
3:56 PM19 °FSunny.7 mph54%30.65 "Hg10 mi
2:56 PM19 °FSunny.8 mph54%30.66 "Hg10 mi
1:56 PM17 °FSunny.8 mph54%30.71 "Hg10 mi
12:56 PM14 °FOvercast.8 mph58%30.74 "Hg10 mi
11:56 AM11 °FOvercast.6 mph64%30.77 "Hg10 mi
10:56 AM3 °FPartly sunny.6 mph76%30.78 "Hg9 mi
9:56 AM-2 °FSunny.5 mph78%30.79 "Hg7 mi
8:56 AM-5 °FSunny.3 mphN/A30.79 "Hg6 mi
7:56 AM-8 °FIce fog.No wind83%30.78 "Hg6 mi
6:56 AM-8 °FPassing clouds.No wind78%30.77 "Hg9 mi
5:56 AM-8 °FClear.No wind83%30.75 "Hg8 mi
4:56 AM-9 °FClear.No wind82%30.73 "Hg7 mi
3:56 AM-9 °FClear.No wind82%30.73 "Hg9 mi
2:56 AM-7 °FClear.No windN/A30.73 "Hg9 mi
Weather by CustomWeather, © 2015

See weather overviewHow to use our weather pages